EW7577 Weather Reports


time (UTC)temp
F
wind
direction
speed
knots
gust
knots
rain 1hr
in
rain 24hr
in
rain mn
in
humidity
%
barometer
mb
20260505230026 78 277 0.9 7.8 0.00 0.00 0.00 30 1003.6
20260505224522 78 300 2.6 13.0 0.00 0.00 0.00 30 1003.7
20260505223021 77 280 0.9 19.1 0.00 0.00 0.00 28 1003.8
20260505221518 77 271 0.9 9.6 0.00 0.00 0.00 30 1004.2
20260505220036 78 253 0.9 7.0 0.00 0.00 0.00 31 1004.3
20260505214524 77 326 0.0 8.7 0.00 0.00 0.00 31 1004.6
20260505213019 76 72 0.0 12.2 0.00 0.00 0.00 32 1004.7
20260505211511 75 277 3.5 10.4 0.00 0.00 0.00 33 1004.9
20260505210010 75 281 0.0 4.3 0.00 0.00 0.00 33 1005.1
20260505204509 75 352 0.9 10.4 0.00 0.00 0.00 33 1005.2
20260505203010 74 290 0.0 7.8 0.00 0.00 0.00 35 1005.4
20260505201505 74 169 0.9 13.0 0.00 0.00 0.00 34 1005.6
20260505200006 73 286 0.0 5.2 0.00 0.00 0.00 34 1005.6
20260505194508 73 283 0.0 7.0 0.00 0.00 0.00 34 1005.7
20260505193005 74 215 0.0 0.9 0.00 0.00 0.00 33 1005.9
20260505191502 74 160 0.0 0.9 0.00 0.00 0.00 33 1006.0
20260505181530 70 273 0.0 0.9 0.00 0.00 0.00 35 1006.6
20260505180028 70 229 0.0 2.6 0.00 0.00 0.00 34 1006.6
20260505174527 70 82 0.0 2.6 0.00 0.00 0.00 35 1006.7
20260505173024 69 262 0.0 3.5 0.00 0.00 0.00 37 1006.7
20260505171523 69 77 0.0 1.7 0.00 0.00 0.00 37 1006.7
20260505170028 69 181 0.0 7.0 0.00 0.00 0.00 36 1006.6
20260505164521 68 138 0.0 0.9 0.00 0.00 0.00 37 1006.5
20260505163019 68 176 0.0 3.5 0.00 0.00 0.00 38 1006.6
20260505161516 67 148 0.9 10.4 0.00 0.00 0.00 38 1006.6
20260505153014 66 148 0.0 5.2 0.00 0.00 0.00 39 1006.4
20260505151511 65 110 0.0 8.7 0.00 0.00 0.00 43 1006.4
20260505124555 52 122 0.0 0.0 0.00 0.00 0.00 73 1004.1
20260505123054 53 141 0.0 0.0 0.00 0.00 0.00 70 1004.0
20260505121543 54 145 0.0 0.0 0.00 0.00 0.00 69 1003.6
20260505120049 54 273 0.0 0.0 0.00 0.00 0.00 67 1003.2
20260505114539 54 259 0.0 0.0 0.00 0.00 0.00 67 1003.1
20260505113040 54 232 0.0 0.0 0.00 0.00 0.00 66 1002.9
20260505111533 55 153 0.0 0.0 0.00 0.00 0.00 63 1002.9
20260505101519 58 241 0.0 0.0 0.00 0.00 0.00 55 1002.0
20260505100017 58 280 0.0 0.9 0.00 0.00 0.00 56 1001.8
20260505094518 58 290 0.0 0.9 0.00 0.00 0.00 55 1001.8
20260505093012 59 263 0.0 3.5 0.00 0.00 0.00 54 1001.6
20260505091512 59 278 0.9 7.0 0.00 0.00 0.00 53 1001.3
20260505090006 60 276 0.0 7.8 0.00 0.00 0.00 52 1001.3
20260505084515 60 281 1.7 8.7 0.00 0.00 0.00 51 1001.2
20260505083002 60 263 0.9 6.1 0.00 0.00 0.00 51 1001.3
20260505081600 61 238 0.0 6.1 0.00 0.00 0.00 49 1001.1
20260505080112 61 264 0.0 7.0 0.00 0.00 0.00 49 1001.1
20260505074553 62 250 0.0 0.9 0.00 0.00 0.00 48 1001.0
20260505073049 64 274 0.0 6.1 0.00 0.00 0.00 44 1000.9
20260505071546 65 288 0.0 5.2 0.00 0.00 0.00 43 1000.8
20260505070045 65 288 0.0 6.1 0.00 0.00 0.00 42 1000.7
20260505064540 65 283 0.0 7.8 0.00 0.00 0.00 42 1000.6
20260505063038 65 283 0.0 6.1 0.00 0.00 0.00 42 1000.5
20260505061534 66 273 0.0 3.5 0.00 0.00 0.00 42 1000.4
20260505060036 67 285 0.9 7.8 0.00 0.00 0.00 41 1000.3
20260505054530 67 271 0.9 7.0 0.00 0.00 0.00 41 1000.1
20260505053045 67 278 2.6 9.6 0.00 0.00 0.00 42 999.9
20260505051530 68 290 0.9 7.0 0.00 0.00 0.00 42 999.9
20260505041526 71 297 0.9 9.6 0.00 0.00 0.00 38 999.5
20260505040025 72 283 1.7 7.0 0.00 0.00 0.00 37 999.4
20260505034528 73 288 0.9 7.8 0.00 0.00 0.00 36 999.2
20260505033025 73 281 0.0 4.3 0.00 0.00 0.00 35 999.1
20260505031526 74 285 0.0 3.5 0.00 0.00 0.00 34 998.8
20260505030023 75 287 0.0 2.6 0.00 0.00 0.00 32 998.7
20260505024522 76 320 0.0 6.1 0.00 0.00 0.00 31 998.6
20260505023022 77 287 0.0 7.8 0.00 0.00 0.00 30 998.4
20260505021521 78 264 0.9 8.7 0.00 0.00 0.00 29 998.4
20260505020021 79 276 0.9 9.6 0.00 0.00 0.00 27 998.3
20260505014519 80 285 0.9 7.8 0.00 0.00 0.00 26 998.4
20260505013019 80 292 0.0 6.1 0.00 0.00 0.00 26 998.6
20260505011541 80 288 0.9 8.7 0.00 0.00 0.00 27 998.7
20260505010018 80 264 0.0 11.3 0.00 0.00 0.00 26 998.8
20260505004513 81 282 0.9 13.9 0.00 0.00 0.00 24 999.0
20260505003012 81 299 0.9 14.8 0.00 0.00 0.00 23 999.3
20260505001510 81 278 0.9 8.7 0.00 0.00 0.00 23 999.2
20260505000006 81 298 1.7 8.7 0.00 0.00 0.00 24 999.4
20260504234504 81 297 6.1 13.9 0.00 0.00 0.00 21 999.6
20260504233002 81 288 3.5 11.3 0.00 0.00 0.00 21 999.7
20260504231600 81 349 0.0 7.0 0.00 0.00 0.00 23 999.8